| time (UTC) | temp C | wind direction | speed KPH | gust KPH | rain 1hr cm | rain 24hr cm | rain mn cm | humidity % | barometer mb |
| 20260503054039 | 26 | 277 | 0.0 | 1.6 | 0.00 | 0.00 | 0.00 | 79 | 1014.6 |
| 20260503053539 | 26 | 0 | 0.0 | 4.8 | 0.00 | 0.00 | 0.00 | 79 | 1014.7 |
| 20260503053043 | 26 | 0 | 0.0 | 4.8 | 0.00 | 0.00 | 0.00 | 79 | 1014.7 |
| 20260503052539 | 26 | 0 | 0.0 | 11.3 | 0.00 | 0.00 | 0.00 | 79 | 1014.9 |
| 20260503052039 | 26 | 0 | 0.0 | 11.3 | 0.00 | 0.00 | 0.00 | 78 | 1014.9 |
| 20260503051544 | 26 | 0 | 0.0 | 6.4 | 0.00 | 0.00 | 0.00 | 78 | 1015.1 |
| 20260503051038 | 26 | 0 | 0.0 | 6.4 | 0.00 | 0.00 | 0.00 | 78 | 1015.1 |
| 20260503050537 | 26 | 0 | 0.0 | 6.4 | 0.00 | 0.00 | 0.00 | 78 | 1015.0 |
| 20260503050051 | 26 | 321 | 0.0 | 8.0 | 0.00 | 0.00 | 0.00 | 78 | 1015.1 |
| 20260503045538 | 26 | 256 | 0.0 | 8.0 | 0.00 | 0.00 | 0.00 | 78 | 1015.1 |
| 20260503045038 | 26 | 0 | 0.0 | 3.2 | 0.00 | 0.00 | 0.00 | 78 | 1015.1 |
| 20260503044544 | 26 | 0 | 0.0 | 4.8 | 0.00 | 0.00 | 0.00 | 78 | 1015.1 |
| 20260503044038 | 26 | 271 | 0.0 | 4.8 | 0.00 | 0.00 | 0.00 | 78 | 1015.2 |
| 20260503043538 | 26 | 194 | 0.0 | 4.8 | 0.00 | 0.00 | 0.00 | 78 | 1015.1 |
| 20260503043043 | 26 | 0 | 0.0 | 12.9 | 0.00 | 0.00 | 0.00 | 77 | 1015.1 |
| 20260503042538 | 26 | 0 | 0.0 | 12.9 | 0.00 | 0.00 | 0.00 | 77 | 1015.1 |
| 20260503042038 | 26 | 302 | 1.6 | 12.9 | 0.00 | 0.00 | 0.00 | 77 | 1015.1 |
| 20260503041544 | 26 | 291 | 0.0 | 11.3 | 0.00 | 0.00 | 0.00 | 77 | 1015.2 |
| 20260503041042 | 26 | 275 | 1.6 | 11.3 | 0.00 | 0.00 | 0.00 | 77 | 1015.1 |
| 20260503040537 | 26 | 273 | 3.2 | 11.3 | 0.00 | 0.00 | 0.00 | 77 | 1015.2 |
| 20260503040047 | 26 | 0 | 1.6 | 11.3 | 0.00 | 0.00 | 0.00 | 77 | 1015.1 |
| 20260503035538 | 26 | 234 | 1.6 | 12.9 | 0.00 | 0.00 | 0.00 | 77 | 1015.0 |
| 20260503035040 | 26 | 248 | 1.6 | 12.9 | 0.00 | 0.00 | 0.00 | 76 | 1015.0 |
| 20260503034545 | 26 | 265 | 3.2 | 14.5 | 0.00 | 0.00 | 0.00 | 76 | 1014.9 |
| 20260503034037 | 26 | 218 | 3.2 | 14.5 | 0.00 | 0.00 | 0.00 | 76 | 1014.8 |
| 20260503033537 | 27 | 273 | 1.6 | 11.3 | 0.00 | 0.00 | 0.00 | 76 | 1014.8 |
| 20260503033043 | 27 | 0 | 0.0 | 11.3 | 0.00 | 0.00 | 0.00 | 76 | 1014.7 |
| 20260503032538 | 27 | 0 | 3.2 | 12.9 | 0.00 | 0.00 | 0.00 | 76 | 1014.4 |
| 20260503032037 | 27 | 260 | 1.6 | 12.9 | 0.00 | 0.00 | 0.00 | 75 | 1014.6 |
| 20260503031553 | 27 | 172 | 1.6 | 11.3 | 0.00 | 0.00 | 0.00 | 75 | 1014.5 |
| 20260503031038 | 27 | 292 | 1.6 | 8.0 | 0.00 | 0.00 | 0.00 | 75 | 1014.5 |
| 20260503030539 | 27 | 266 | 1.6 | 6.4 | 0.00 | 0.00 | 0.00 | 75 | 1014.5 |
| 20260503030050 | 27 | 281 | 1.6 | 9.7 | 0.00 | 0.00 | 0.00 | 74 | 1014.4 |
| 20260503025538 | 27 | 0 | 1.6 | 11.3 | 0.00 | 0.00 | 0.00 | 74 | 1014.5 |
| 20260503025038 | 27 | 256 | 1.6 | 11.3 | 0.00 | 0.00 | 0.00 | 74 | 1014.4 |
| 20260503024548 | 27 | 247 | 3.2 | 16.1 | 0.00 | 0.00 | 0.00 | 74 | 1014.4 |
| 20260503024038 | 27 | 309 | 3.2 | 16.1 | 0.00 | 0.00 | 0.00 | 73 | 1014.4 |
| 20260503023537 | 27 | 268 | 3.2 | 12.9 | 0.00 | 0.00 | 0.00 | 73 | 1014.5 |
| 20260503023043 | 27 | 270 | 1.6 | 12.9 | 0.00 | 0.00 | 0.00 | 73 | 1014.5 |
| 20260503022537 | 27 | 207 | 3.2 | 9.7 | 0.00 | 0.00 | 0.00 | 73 | 1014.5 |
| 20260503022037 | 27 | 251 | 0.0 | 9.7 | 0.00 | 0.00 | 0.00 | 72 | 1014.4 |
| 20260503021548 | 27 | 202 | 3.2 | 11.3 | 0.00 | 0.00 | 0.00 | 72 | 1014.4 |
| 20260503021037 | 27 | 262 | 1.6 | 12.9 | 0.00 | 0.00 | 0.00 | 71 | 1014.3 |
| 20260503020538 | 27 | 185 | 3.2 | 12.9 | 0.00 | 0.00 | 0.00 | 71 | 1014.3 |
| 20260503020051 | 27 | 0 | 4.8 | 12.9 | 0.00 | 0.00 | 0.00 | 71 | 1014.4 |
| 20260503015609 | 27 | 235 | 1.6 | 12.9 | 0.00 | 0.00 | 0.00 | 71 | 1014.4 |
| 20260503015039 | 28 | 242 | 3.2 | 12.9 | 0.00 | 0.00 | 0.00 | 70 | 1014.5 |
| 20260503014553 | 28 | 289 | 1.6 | 12.9 | 0.00 | 0.00 | 0.00 | 70 | 1014.4 |
| 20260503014038 | 28 | 282 | 1.6 | 17.7 | 0.00 | 0.00 | 0.00 | 69 | 1014.4 |
| 20260503013538 | 28 | 315 | 3.2 | 17.7 | 0.00 | 0.00 | 0.00 | 69 | 1014.3 |
| 20260503013050 | 28 | 279 | 3.2 | 16.1 | 0.00 | 0.00 | 0.00 | 68 | 1014.3 |
| 20260503012538 | 28 | 291 | 4.8 | 14.5 | 0.00 | 0.00 | 0.00 | 67 | 1014.2 |
| 20260503012037 | 28 | 313 | 3.2 | 14.5 | 0.00 | 0.00 | 0.00 | 67 | 1014.2 |
| 20260503011604 | 28 | 240 | 3.2 | 14.5 | 0.00 | 0.00 | 0.00 | 66 | 1014.0 |
| 20260503011037 | 28 | 0 | 1.6 | 11.3 | 0.00 | 0.00 | 0.00 | 66 | 1014.0 |
| 20260503010539 | 28 | 205 | 3.2 | 14.5 | 0.00 | 0.00 | 0.00 | 66 | 1013.8 |
| 20260503010044 | 28 | 0 | 3.2 | 16.1 | 0.00 | 0.00 | 0.00 | 66 | 1013.8 |
| 20260503005540 | 28 | 302 | 6.4 | 16.1 | 0.00 | 0.00 | 0.00 | 65 | 1013.8 |
| 20260503005037 | 28 | 284 | 4.8 | 16.1 | 0.00 | 0.00 | 0.00 | 64 | 1013.8 |
| 20260503004549 | 29 | 306 | 4.8 | 16.1 | 0.00 | 0.00 | 0.00 | 64 | 1013.5 |
| 20260503004037 | 29 | 288 | 4.8 | 19.3 | 0.00 | 0.00 | 0.00 | 63 | 1013.5 |
| 20260503003539 | 29 | 242 | 1.6 | 19.3 | 0.00 | 0.00 | 0.00 | 63 | 1013.4 |
| 20260503003049 | 29 | 279 | 4.8 | 17.7 | 0.00 | 0.00 | 0.00 | 62 | 1013.4 |
| 20260503002538 | 30 | 243 | 4.8 | 17.7 | 0.00 | 0.00 | 0.00 | 61 | 1013.3 |
| 20260503002038 | 30 | 297 | 1.6 | 22.5 | 0.00 | 0.00 | 0.00 | 60 | 1013.2 |
| 20260503001549 | 30 | 282 | 8.0 | 22.5 | 0.00 | 0.00 | 0.00 | 59 | 1013.1 |
| 20260503001038 | 30 | 307 | 6.4 | 22.5 | 0.00 | 0.00 | 0.00 | 58 | 1012.9 |
| 20260503000537 | 30 | 279 | 4.8 | 19.3 | 0.00 | 0.00 | 0.00 | 57 | 1013.0 |
| 20260502235537 | 30 | 255 | 4.8 | 17.7 | 0.00 | 0.00 | 0.00 | 54 | 1012.9 |
| 20260502235037 | 31 | 192 | 4.8 | 17.7 | 0.00 | 0.00 | 0.00 | 53 | 1012.8 |
| 20260502234548 | 31 | 219 | 3.2 | 17.7 | 0.00 | 0.00 | 0.00 | 51 | 1012.7 |
| 20260502234038 | 31 | 246 | 4.8 | 17.7 | 0.00 | 0.00 | 0.00 | 50 | 1012.5 |
| 20260502233538 | 31 | 275 | 4.8 | 17.7 | 0.00 | 0.00 | 0.00 | 50 | 1012.4 |
| 20260502233042 | 31 | 278 | 4.8 | 12.9 | 0.00 | 0.00 | 0.00 | 50 | 1012.4 |
| 20260502232539 | 31 | 306 | 1.6 | 14.5 | 0.00 | 0.00 | 0.00 | 50 | 1012.4 |
| 20260502232038 | 31 | 189 | 3.2 | 14.5 | 0.00 | 0.00 | 0.00 | 51 | 1012.2 |
| 20260502231612 | 31 | 11 | 3.2 | 14.5 | 0.00 | 0.00 | 0.00 | 48 | 1012.1 |
| 20260502231038 | 31 | 0 | 3.2 | 14.5 | 0.00 | 0.00 | 0.00 | 50 | 1012.0 |
| 20260502230538 | 31 | 155 | 3.2 | 16.1 | 0.00 | 0.00 | 0.00 | 49 | 1011.8 |
| 20260502230051 | 32 | 224 | 3.2 | 19.3 | 0.00 | 0.00 | 0.00 | 48 | 1011.8 |
| 20260502225539 | 32 | 279 | 4.8 | 19.3 | 0.00 | 0.00 | 0.00 | 48 | 1011.7 |
| 20260502225039 | 32 | 241 | 3.2 | 17.7 | 0.00 | 0.00 | 0.00 | 48 | 1011.7 |
| 20260502224555 | 32 | 265 | 4.8 | 20.9 | 0.00 | 0.00 | 0.00 | 47 | 1011.7 |
| 20260502224038 | 32 | 269 | 3.2 | 20.9 | 0.00 | 0.00 | 0.00 | 50 | 1011.5 |
| 20260502223538 | 32 | 275 | 6.4 | 20.9 | 0.00 | 0.00 | 0.00 | 49 | 1011.5 |
| 20260502223047 | 32 | 271 | 6.4 | 19.3 | 0.00 | 0.00 | 0.00 | 49 | 1011.5 |
| 20260502222538 | 32 | 319 | 6.4 | 19.3 | 0.00 | 0.00 | 0.00 | 48 | 1011.4 |
| 20260502222040 | 32 | 248 | 4.8 | 16.1 | 0.00 | 0.00 | 0.00 | 48 | 1011.5 |
| 20260502221552 | 32 | 150 | 1.6 | 22.5 | 0.00 | 0.00 | 0.00 | 47 | 1011.5 |
| 20260502221038 | 32 | 181 | 8.0 | 22.5 | 0.00 | 0.00 | 0.00 | 46 | 1011.5 |
| 20260502220537 | 32 | 219 | 4.8 | 22.5 | 0.00 | 0.00 | 0.00 | 47 | 1011.6 |
| 20260502220049 | 33 | 266 | 8.0 | 22.5 | 0.00 | 0.00 | 0.00 | 46 | 1011.5 |
| 20260502215538 | 33 | 240 | 6.4 | 22.5 | 0.00 | 0.00 | 0.00 | 45 | 1011.4 |
| 20260502215038 | 33 | 238 | 6.4 | 25.7 | 0.00 | 0.00 | 0.00 | 45 | 1011.4 |
| 20260502214550 | 33 | 230 | 4.8 | 25.7 | 0.00 | 0.00 | 0.00 | 44 | 1011.3 |
| 20260502214038 | 33 | 273 | 4.8 | 24.1 | 0.00 | 0.00 | 0.00 | 44 | 1011.4 |
| 20260502213537 | 33 | 252 | 6.4 | 24.1 | 0.00 | 0.00 | 0.00 | 43 | 1011.2 |
| 20260502213055 | 33 | 275 | 6.4 | 19.3 | 0.00 | 0.00 | 0.00 | 42 | 1011.2 |
| 20260502212541 | 33 | 257 | 4.8 | 22.5 | 0.00 | 0.00 | 0.00 | 41 | 1011.1 |
| 20260502212038 | 33 | 265 | 8.0 | 22.5 | 0.00 | 0.00 | 0.00 | 41 | 1011.0 |
| 20260502211549 | 33 | 279 | 4.8 | 25.7 | 0.00 | 0.00 | 0.00 | 42 | 1010.9 |
| 20260502211038 | 33 | 181 | 8.0 | 25.7 | 0.00 | 0.00 | 0.00 | 41 | 1010.9 |
| 20260502210538 | 33 | 186 | 6.4 | 14.5 | 0.00 | 0.00 | 0.00 | 41 | 1010.8 |
| 20260502210049 | 33 | 313 | 4.8 | 24.1 | 0.00 | 0.00 | 0.00 | 44 | 1010.8 |
| 20260502205542 | 33 | 309 | 6.4 | 24.1 | 0.00 | 0.00 | 0.00 | 42 | 1010.8 |
| 20260502205040 | 33 | 193 | 6.4 | 33.8 | 0.00 | 0.00 | 0.00 | 43 | 1010.8 |
| 20260502204548 | 33 | 169 | 6.4 | 33.8 | 0.00 | 0.00 | 0.00 | 44 | 1010.9 |
| 20260502204038 | 33 | 304 | 9.7 | 33.8 | 0.00 | 0.00 | 0.00 | 43 | 1010.8 |
| 20260502203538 | 33 | 198 | 6.4 | 22.5 | 0.00 | 0.00 | 0.00 | 45 | 1011.0 |
| 20260502203048 | 33 | 288 | 6.4 | 22.5 | 0.00 | 0.00 | 0.00 | 47 | 1010.7 |
| 20260502202539 | 33 | 261 | 4.8 | 30.6 | 0.00 | 0.00 | 0.00 | 45 | 1010.8 |
| 20260502202037 | 33 | 149 | 4.8 | 30.6 | 0.00 | 0.00 | 0.00 | 49 | 1010.9 |
| 20260502201549 | 33 | 295 | 6.4 | 30.6 | 0.00 | 0.00 | 0.00 | 48 | 1011.1 |
| 20260502201038 | 33 | 280 | 4.8 | 20.9 | 0.00 | 0.00 | 0.00 | 49 | 1011.2 |
| 20260502200537 | 33 | 265 | 6.4 | 24.1 | 0.00 | 0.00 | 0.00 | 48 | 1011.3 |
| 20260502200049 | 33 | 240 | 6.4 | 24.1 | 0.00 | 0.00 | 0.00 | 47 | 1011.3 |
| 20260502195539 | 33 | 302 | 6.4 | 25.7 | 0.00 | 0.00 | 0.00 | 50 | 1011.3 |
| 20260502195038 | 33 | 147 | 8.0 | 25.7 | 0.00 | 0.00 | 0.00 | 48 | 1011.5 |
| 20260502194552 | 33 | 240 | 8.0 | 24.1 | 0.00 | 0.00 | 0.00 | 48 | 1011.6 |
| 20260502194038 | 33 | 248 | 3.2 | 24.1 | 0.00 | 0.00 | 0.00 | 51 | 1011.7 |
| 20260502193538 | 33 | 209 | 6.4 | 17.7 | 0.00 | 0.00 | 0.00 | 49 | 1011.9 |
| 20260502193057 | 33 | 329 | 1.6 | 22.5 | 0.00 | 0.00 | 0.00 | 50 | 1011.7 |
| 20260502192538 | 33 | 164 | 6.4 | 22.5 | 0.00 | 0.00 | 0.00 | 50 | 1011.8 |
| 20260502192038 | 33 | 225 | 6.4 | 19.3 | 0.00 | 0.00 | 0.00 | 51 | 1012.0 |
| 20260502191550 | 33 | 255 | 8.0 | 20.9 | 0.00 | 0.00 | 0.00 | 54 | 1011.9 |
| 20260502191038 | 32 | 150 | 4.8 | 24.1 | 0.00 | 0.00 | 0.00 | 54 | 1011.9 |
| 20260502190538 | 32 | 156 | 9.7 | 24.1 | 0.00 | 0.00 | 0.00 | 52 | 1011.9 |
| 20260502190052 | 32 | 206 | 8.0 | 24.1 | 0.00 | 0.00 | 0.00 | 53 | 1012.0 |
| 20260502185539 | 32 | 233 | 8.0 | 24.1 | 0.00 | 0.00 | 0.00 | 57 | 1012.0 |
| 20260502185038 | 32 | 217 | 4.8 | 24.1 | 0.00 | 0.00 | 0.00 | 57 | 1011.9 |
| 20260502184559 | 32 | 222 | 8.0 | 24.1 | 0.00 | 0.00 | 0.00 | 57 | 1011.9 |
| 20260502184039 | 32 | 305 | 6.4 | 20.9 | 0.00 | 0.00 | 0.00 | 56 | 1012.0 |
| 20260502183539 | 32 | 214 | 6.4 | 20.9 | 0.00 | 0.00 | 0.00 | 58 | 1012.1 |
| 20260502183046 | 32 | 237 | 8.0 | 22.5 | 0.00 | 0.00 | 0.00 | 61 | 1012.0 |
| 20260502182540 | 32 | 144 | 6.4 | 22.5 | 0.00 | 0.00 | 0.00 | 60 | 1012.0 |
| 20260502182038 | 32 | 252 | 4.8 | 20.9 | 0.00 | 0.00 | 0.00 | 64 | 1012.1 |
| 20260502181548 | 32 | 169 | 6.4 | 20.9 | 0.00 | 0.00 | 0.00 | 64 | 1012.0 |
| 20260502181038 | 32 | 225 | 3.2 | 19.3 | 0.00 | 0.00 | 0.00 | 62 | 1012.0 |
| 20260502180538 | 32 | 165 | 4.8 | 19.3 | 0.00 | 0.00 | 0.00 | 64 | 1012.0 |
| 20260502164038 | 32 | 197 | 4.8 | 22.5 | 0.00 | 0.00 | 0.00 | 69 | 1012.6 |
| 20260502163537 | 31 | 192 | 6.4 | 22.5 | 0.00 | 0.00 | 0.00 | 69 | 1012.7 |
| 20260502163050 | 31 | 176 | 8.0 | 24.1 | 0.00 | 0.00 | 0.00 | 68 | 1012.6 |
| 20260502162541 | 31 | 286 | 8.0 | 25.7 | 0.00 | 0.00 | 0.00 | 68 | 1012.6 |
| 20260502162039 | 31 | 211 | 11.3 | 25.7 | 0.00 | 0.00 | 0.00 | 69 | 1012.8 |
| 20260502161624 | 30 | 144 | 8.0 | 27.4 | 0.00 | 0.00 | 0.00 | 71 | 1012.8 |
| 20260502161041 | 30 | 232 | 8.0 | 30.6 | 0.00 | 0.00 | 0.00 | 71 | 1012.9 |
| 20260502160537 | 30 | 182 | 9.7 | 32.2 | 0.00 | 0.00 | 0.00 | 71 | 1012.9 |
| 20260502160108 | 30 | 165 | 12.9 | 32.2 | 0.00 | 0.00 | 0.00 | 71 | 1012.8 |
| 20260502152038 | 30 | 209 | 8.0 | 25.7 | 0.00 | 0.00 | 0.00 | 71 | 1013.2 |
| 20260502151544 | 30 | 205 | 8.0 | 25.7 | 0.00 | 0.00 | 0.00 | 72 | 1013.4 |
| 20260502151037 | 30 | 219 | 8.0 | 24.1 | 0.00 | 0.00 | 0.00 | 72 | 1013.2 |
| 20260502150537 | 30 | 150 | 8.0 | 24.1 | 0.00 | 0.00 | 0.00 | 71 | 1013.2 |
| 20260502130538 | 27 | 165 | 9.7 | 24.1 | 0.00 | 0.00 | 0.00 | 79 | 1012.6 |
| 20260502130104 | 27 | 227 | 4.8 | 24.1 | 0.00 | 0.00 | 0.00 | 80 | 1012.6 |
| 20260502123537 | 26 | 182 | 4.8 | 19.3 | 0.00 | 0.00 | 0.00 | 83 | 1012.7 |
| 20260502123111 | 26 | 202 | 6.4 | 19.3 | 0.00 | 0.00 | 0.00 | 82 | 1012.7 |
| 20260502122540 | 26 | 203 | 6.4 | 17.7 | 0.00 | 0.00 | 0.00 | 83 | 1012.7 |
| 20260502122037 | 26 | 182 | 4.8 | 19.3 | 0.00 | 0.00 | 0.00 | 84 | 1012.5 |
| 20260502121548 | 26 | 67 | 3.2 | 22.5 | 0.00 | 0.00 | 0.00 | 84 | 1012.7 |
| 20260502121040 | 26 | 214 | 6.4 | 22.5 | 0.00 | 0.00 | 0.00 | 85 | 1012.7 |
| 20260502120537 | 25 | 180 | 6.4 | 16.1 | 0.00 | 0.00 | 0.00 | 85 | 1012.6 |
| 20260502115538 | 25 | 162 | 6.4 | 19.3 | 0.00 | 0.00 | 0.00 | 86 | 1012.6 |
| 20260502115038 | 25 | 173 | 3.2 | 12.9 | 0.00 | 0.00 | 0.00 | 87 | 1012.5 |
| 20260502114550 | 25 | 170 | 1.6 | 8.0 | 0.00 | 0.00 | 0.00 | 87 | 1012.6 |
| 20260502114038 | 25 | 191 | 0.0 | 6.4 | 0.00 | 0.00 | 0.00 | 87 | 1012.7 |
| 20260502113540 | 25 | 195 | 1.6 | 6.4 | 0.00 | 0.00 | 0.00 | 87 | 1012.6 |
| 20260502113046 | 25 | 194 | 1.6 | 6.4 | 0.00 | 0.00 | 0.00 | 87 | 1012.6 |
| 20260502112538 | 25 | 188 | 1.6 | 6.4 | 0.00 | 0.00 | 0.00 | 87 | 1012.6 |
| 20260502112037 | 25 | 183 | 1.6 | 6.4 | 0.00 | 0.00 | 0.00 | 87 | 1012.6 |
| 20260502111545 | 25 | 0 | 0.0 | 9.7 | 0.00 | 0.00 | 0.00 | 87 | 1012.7 |
| 20260502111039 | 25 | 175 | 0.0 | 9.7 | 0.00 | 0.00 | 0.00 | 87 | 1012.7 |
| 20260502110537 | 25 | 163 | 0.0 | 4.8 | 0.00 | 0.00 | 0.00 | 87 | 1012.6 |
| 20260502110051 | 25 | 0 | 1.6 | 4.8 | 0.00 | 0.00 | 0.00 | 87 | 1012.7 |
| 20260502105538 | 24 | 0 | 0.0 | 3.2 | 0.00 | 0.00 | 0.00 | 87 | 1012.6 |
| 20260502105039 | 24 | 178 | 0.0 | 3.2 | 0.00 | 0.00 | 0.00 | 86 | 1012.5 |
| 20260502104547 | 24 | 0 | 0.0 | 1.6 | 0.00 | 0.00 | 0.00 | 86 | 1012.6 |
| 20260502104038 | 24 | 0 | 0.0 | 0.0 | 0.00 | 0.00 | 0.00 | 86 | 1012.5 |
| 20260502103538 | 24 | 0 | 0.0 | 0.0 | 0.00 | 0.00 | 0.00 | 86 | 1012.6 |
| 20260502103042 | 25 | 0 | 0.0 | 0.0 | 0.00 | 0.00 | 0.00 | 86 | 1012.5 |
| 20260502102542 | 25 | 0 | 0.0 | 1.6 | 0.00 | 0.00 | 0.00 | 85 | 1012.6 |
| 20260502102038 | 25 | 0 | 0.0 | 1.6 | 0.00 | 0.00 | 0.00 | 85 | 1012.6 |
| 20260502101553 | 25 | 0 | 0.0 | 1.6 | 0.00 | 0.00 | 0.00 | 85 | 1012.7 |
| 20260502101041 | 25 | 0 | 0.0 | 3.2 | 0.00 | 0.00 | 0.00 | 85 | 1012.7 |
| 20260502100537 | 25 | 0 | 0.0 | 3.2 | 0.00 | 0.00 | 0.00 | 85 | 1012.7 |
| 20260502091037 | 25 | 210 | 1.6 | 6.4 | 0.00 | 0.00 | 0.00 | 86 | 1012.4 |
| 20260502090537 | 25 | 217 | 1.6 | 8.0 | 0.00 | 0.00 | 0.00 | 86 | 1012.5 |
| 20260502071037 | 24 | 0 | 0.0 | 3.2 | 0.00 | 0.00 | 0.00 | 86 | 1012.4 |
| 20260502070541 | 24 | 0 | 0.0 | 3.2 | 0.00 | 0.00 | 0.00 | 86 | 1012.3 |
| 20260502070048 | 24 | 0 | 0.0 | 3.2 | 0.00 | 0.00 | 0.00 | 86 | 1012.2 |
| 20260502065538 | 24 | 0 | 0.0 | 3.2 | 0.00 | 0.00 | 0.00 | 86 | 1012.3 |
| 20260502065038 | 24 | 0 | 0.0 | 3.2 | 0.00 | 0.00 | 0.00 | 86 | 1012.4 |
| 20260502064547 | 24 | 0 | 0.0 | 3.2 | 0.00 | 0.00 | 0.00 | 85 | 1012.4 |
| 20260502064039 | 24 | 0 | 0.0 | 0.0 | 0.00 | 0.00 | 0.00 | 85 | 1012.4 |
| 20260502063538 | 24 | 0 | 0.0 | 0.0 | 0.00 | 0.00 | 0.00 | 85 | 1012.4 |
| 20260502063055 | 24 | 0 | 0.0 | 0.0 | 0.00 | 0.00 | 0.00 | 85 | 1012.6 |
| 20260502062538 | 24 | 0 | 0.0 | 0.0 | 0.00 | 0.00 | 0.00 | 85 | 1012.6 |
| 20260502062037 | 24 | 0 | 0.0 | 0.0 | 0.00 | 0.00 | 0.00 | 85 | 1012.6 |
| 20260502061544 | 24 | 0 | 0.0 | 0.0 | 0.00 | 0.00 | 0.00 | 85 | 1012.7 |
| 20260502061037 | 24 | 0 | 0.0 | 3.2 | 0.00 | 0.00 | 0.00 | 84 | 1012.7 |
| 20260502060537 | 24 | 0 | 0.0 | 3.2 | 0.00 | 0.00 | 0.00 | 84 | 1012.5 |
| 20260502060045 | 24 | 190 | 0.0 | 3.2 | 0.00 | 0.00 | 0.00 | 84 | 1012.5 |
| 20260502055540 | 24 | 0 | 0.0 | 3.2 | 0.00 | 0.00 | 0.00 | 84 | 1012.6 |
| 20260502055038 | 24 | 0 | 0.0 | 3.2 | 0.00 | 0.00 | 0.00 | 84 | 1012.7 |
| 20260502054550 | 24 | 193 | 0.0 | 3.2 | 0.00 | 0.00 | 0.00 | 84 | 1012.7 |